Regional Weather Roundup
Issued by NWS

Home | Current Version | Previous Version | Text Only | Print | Product List | Glossary Off
Versions: 1 2 3 4 5 6 7 8 9 10 11 12 13 14 15 16 17 18 19 20 21 22 23 24 25 26 27 28 29 30 31 32 33 34 35 36 37 38 39 40 41 42 43 44 45 46 47 48 49 50

000
ASUS43 KLOT 280303
RWRIL

ILLINOIS REGIONAL WEATHER ROUNDUP
NATIONAL WEATHER SERVICE CHICAGO/ROMEOVILLE IL
1000 PM CDT TUE JUN 27 2017

NOTE: "FAIR" INDICATES FEW OR NO CLOUDS BELOW 12,000 FEET WITH NO
SIGNIFICANT WEATHER AND/OR OBSTRUCTIONS TO VISIBILITY.

* THESE STATIONS ARE NOT UNDER NWS QUALITY CONTROL. THEY ALSO MAY NOT
  REPORT WEATHER SUCH AS PRECIPITATION OR FOG.

ILZ001-002-007-009-015-016-024-280400-
NORTHWEST ILLINOIS

CITY           SKY/WX    TMP DP  RH WIND       PRES   REMARKS
MOLINE         CLEAR     63  50  62 SE6       29.98R
STERLING*      PTCLDY    64  50  60 SE5       30.01R
SAVANNA*       PTCLDY    59  51  74 SE6       29.99R
$$

ILZ003-004-008-010-011-017-018-280400-
NORTH CENTRAL ILLINOIS

CITY           SKY/WX    TMP DP  RH WIND       PRES   REMARKS
ROCKFORD       PTCLDY    65  47  52 S8        30.03R
FREEPORT*      PTCLDY    59  47  66 S7        30.02R
ROCHELLE*      PTCLDY    59  48  67 S7        30.03R
DE KALB*       MOCLDY    61  49  65 S6        30.04R
$$

ILZ005-006-012>014-019>023-280400-
NORTHEAST ILLINOIS

CITY           SKY/WX    TMP DP  RH WIND       PRES   REMARKS
CHICAGO-OHARE  PTCLDY    69  45  41 S8        30.03R
CHICAGO-MIDWAY PTCLDY    71  46  40 S7        30.04R
AURORA         PTCLDY    65  47  52 S6        30.04R
LANSING*       CLEAR     60  46  58 S6        30.05R
JOLIET*        PTCLDY    64  51  63 CALM      30.05R
WAUKEGAN       CLOUDY    63  53  70 S9        30.02R
DUPAGE AIRPORT PTCLDY    62  49  62 S5        30.03R
WHEELING       PTCLDY    63  51  65 SE3       30.04R
MORRIS*        PTCLDY    64  48  57 S3        30.03R
$$

LMZ740>746-280400-
SOUTHERN LAKE MICHIGAN

STATION/POSITION SKY/WX   TEMP    WIND        PRES    VSBY  WAVE
                          AIR SEA DIR/SP/G                  HT/PER
                          (F)     (DEG/KT/KT) (MB)    (MI)  (FT/S)
SOUTHERN BUOY              63 62  160/ 10/ 12 1016.4
WILMETTE HARBOR            65 64  160/  8/ 10   N/A           1/ 3
HARRISON CRIB              66     190/  7/  8   N/A
BURNHAM HARBOR             67                   N/A
CALUMET HARBOR             69     200/  5/  7 1016.7R
BURNS HARBOR               68     190/  8/ 10 1017.9R
MICHIGAN CITY              67     140/  7/  9   N/A
MICHIGAN CITY 6N           67 66  170/  8/ 10   N/A           1
ST. JOSEPH                 68 69  150/  8/ 10 1017.6R         1
$$

ILZ025>027-034>036-040-047-049-050-058-095>099-280400-
WEST-CENTRAL ILLINOIS

CITY           SKY/WX    TMP DP  RH WIND       PRES   REMARKS
QUINCY         CLEAR     65  54  67 SE6       29.99R
GALESBURG*     PTCLDY    65  50  59 SE3       30.00S
MACOMB*        CLEAR     59  53  78 S6        30.01S
PITTSFIELD*    CLEAR     64  55  72 SE5       30.02S
$$

ILZ028>032-037-038-041>044-048-051>054-059>061-280400-
CENTRAL ILLINOIS

CITY           SKY/WX    TMP DP  RH WIND       PRES   REMARKS
PONTIAC        CLEAR     64  49  56 SE7       30.05S
BLOOMINGTON    CLEAR     62  49  62 S9        30.06S
DECATUR        CLEAR     64  49  57 SE8       30.06R
PEORIA         CLEAR     67  50  54 SE7       30.02R
LACON*         PTCLDY    64  49  57 SE6       30.01S
LINCOLN*       CLEAR     64  53  69 CALM      30.04R
SPRINGFIELD    CLEAR     67  53  61 SE7       30.03S
TAYLORVILLE    NOT AVBL
$$

ILZ033-039-045-046-055>057-062-063-280400-
EAST-CENTRAL ILLINOIS

CITY           SKY/WX    TMP DP  RH WIND       PRES   REMARKS
CHAMPAIGN      CLEAR     61  49  64 S8        30.07R
RANTOUL*       CLEAR     62  52  69 S5        30.08R
MATTOON        CLEAR     62  53  72 SE5       30.07R
$$

ILZ079-100>102-280400-
SOUTHWEST ILLINOIS

CITY           SKY/WX    TMP DP  RH WIND       PRES   REMARKS
ALTON          CLEAR     64  55  72 E6        30.02S
BELLEVILLE     CLEAR     66  54  66 S5        30.05R
CAHOKIA*       CLEAR     71  52  50 S5        30.02S
SPARTA*        CLEAR     67  55  64 SE5       30.06R
$$

ILZ064>066-069>071-074>076-080>082-084>086-088>090-092>094-280400-
SOUTH-CENTRAL ILLINOIS

CITY           SKY/WX    TMP DP  RH WIND       PRES   REMARKS
CARBONDALE     CLEAR     66  59  78 SE6       30.06R
CAIRO*         PTCLDY    71  60  69 CALM      30.07R
EFFINGHAM*     CLEAR     63  56  77 E3        30.09R
MARION         CLEAR     64  57  77 E3        30.08R
MT. VERNON     PTCLDY    62  56  80 CALM      30.07S
CENTRALIA*     CLEAR     63  56  79 SE5       30.06R
SALEM*         CLEAR     67  54  61 SE3       30.07R
METROPOLIS*    CLEAR     65  60  83 CALM      30.08R
$$

ILZ067-068-072-073-078-083-087-091-280400-
SOUTHEAST ILLINOIS

CITY           SKY/WX    TMP DP  RH WIND       PRES   REMARKS
LAWRENCEVILLE  CLEAR     64  55  72 E3        30.09R
FLORA*         PTCLDY    64  56  77 SE3       30.08R
FAIRFIELD*     CLEAR     62  57  83 CALM      30.07R
HARRISBURG*    CLEAR     63  60  90 CALM      30.08R
ROBINSON*      PTCLDY    57  54  88 CALM      30.10R
CARMI*         CLEAR     62  60  93 E5        30.08R
$$

ABBREVIATIONS USED IN REMARKS
   TC - TEMPERATURE IN CELSIUS
  WCI - WIND CHILL INDEX
   HX - HEAT INDEX
  VSB - VISIBILITY
$$





USA.gov is the U.S. government's official web portal to all federal, state and local government web resources and services.